Regional Weather Roundup
Issued by NWS

Home | Current Version | Previous Version | Text Only | Print | Product List | Glossary Off
Versions: 1 2 3 4 5 6 7 8 9 10 11 12 13 14 15 16 17 18 19 20 21 22 23 24 25 26 27 28 29 30 31 32 33 34 35 36 37 38 39 40 41 42 43 44 45 46 47 48 49 50

000
ASUS43 KDTX 271401
RWRMI
MICHIGAN HOURLY REGIONAL WEATHER ROUNDUP
NATIONAL WEATHER SERVICE DETROIT/PONTIAC MI
1000 AM EDT MON MAR 27 2017

NOTE: "FAIR" INDICATES FEW OR NO CLOUDS BELOW 12,000 FEET WITH NO
SIGNIFICANT WEATHER AND/OR OBSTRUCTION TO VISIBILITY.

MIZ047>049-052>055-059>063-066>070-074>076-081>083-271500-
SOUTHEAST LOWER MICHIGAN

CITY           SKY/WX    TMP DP  RH WIND       PRES   REMARKS
ADRIAN         CLOUDY    51  49  92 W8        29.94S
ALMA           CLOUDY    47  45  94 SW9       29.91R
ANN ARBOR      CLOUDY    53  51  93 SW10      29.92S
BAD AXE        CLOUDY    50  50 100 W7        29.87S FOG
CARO           CLOUDY    51  50  93 SW10G16   29.88R
DETROIT CITY   CLOUDY    54  52  93 SW10      29.92R
DETROIT        CLOUDY    53  51  93 SW10      29.94R FOG
FLINT          CLOUDY    52  50  93 NW9       29.90S
GROSSE ILE     CLOUDY    53  50  91 W8        29.93R
HILLSDALE      CLOUDY    48  46  93 SW5       29.93F FOG
HOWELL         CLOUDY    52  49  89 SW9       29.91S

CITY           SKY/WX    TMP DP  RH WIND       PRES   REMARKS
JACKSON        CLOUDY    52  49  89 W8        29.92S
LAMBERTVILLE   CLOUDY    55  50  85 W6        29.94S
LANSING        CLOUDY    49  46  90 W10       29.92R
LAPEER         LGT RAIN  52  51  95 W7        29.90R
MASON          CLOUDY    51  49  93 W6        29.92S
MONROE         CLOUDY    54  52  92 SW12      29.92S
MT. CLEMENS    CLOUDY    53  53 100 SW8       29.89R FOG
PONTIAC        CLOUDY    53  50  89 SW8       29.90R
PORT HOPE        N/A     49  48  97 MISG      29.85R
PORT HURON     CLOUDY    50  50 100 S6        29.90R FOG
TRI CITIES     CLOUDY    50  48  93 W12       29.89R
MIDLAND        CLOUDY    47  47  98 W7        29.89R FOG
TROY           CLOUDY    53  51  93 SW6       29.93R FOG
SAGINAW HB     CLOUDY    52  46  82 SW12      29.89R
$$
MIZ043>046-050>051-056>058-064>065-071>073-077>080-271500-
SOUTHWEST LOWER MICHIGAN

CITY           SKY/WX    TMP DP  RH WIND       PRES   REMARKS
BATTLE CREEK   CLOUDY    49  49 100 SW8       29.93S FOG
BENTON HARBOR  FOG       42  40  92 NW3       29.96R VSB 1/2
BIG RAPIDS     CLOUDY    39  38  97 W7        29.90R WCI  34
COLDWATER      CLOUDY    50  50 100 W6        29.93F FOG
FREMONT        CLOUDY    38  38 100 W5        29.93R WCI  35
HOLLAND        CLOUDY    41  39  93 W5        29.95S
GRAND RAPIDS   CLOUDY    42  42 100 W8        29.93S FOG
IONIA          LGT RAIN  43  42  97 W10       29.92R
KALAMAZOO      CLOUDY    49  46  90 W7        29.94S FOG
LUDINGTON      CLOUDY    37  37 100 N6        29.93R WCI  33
MARSHALL       CLOUDY    51  50  98 W6        29.92S
MOUNT PLEASANT CLOUDY    44  43  97 W8        29.89R
MUSKEGON       CLOUDY    40  38  93 W7        29.95R
SOUTH HAVEN    CLOUDY    40  40  99 CALM      29.95S FOG
$$
MIZ016>042-271500-
NORTHERN LOWER MICHIGAN

CITY           SKY/WX    TMP DP  RH WIND       PRES   REMARKS
ALPENA         CLOUDY    42  42 100 NW6       29.86R
BEAVER ISLAND  CLOUDY    35  35 100 NW3       29.90S FOG
BELLAIRE       CLOUDY    35  34  96 CALM      29.90S FOG
CADILLAC       CLOUDY    38  37  97 NW6       29.87R WCI  34
CHARLEVOIX     FOG       35  35 100 NW6       29.93R VSB 1/2 WCI  30
FRANKFORT      CLOUDY    37  35  93 NW5       29.93R WCI  33
GAYLORD        FOG       38  34  85 NW8       29.85R VSB 3/4 WCI  32
GRAYLING       CLOUDY    39  39 100 W7        29.88R WCI  34
HARBOR SPRINGS CLOUDY    34  34 100 CALM      29.89R FOG
HOUGHTON LAKE  CLOUDY    42  41  96 NW6       29.87R FOG
MANISTEE       CLOUDY    37  36  96 NW8       29.93R WCI  31
OSCODA         CLOUDY    45  44  97 CALM      29.84S FOG
PELLSTON       CLOUDY    35  33  92 NW8       29.89R WCI  29
ROGERS CITY    CLOUDY    36  35  96 NW8       29.84  FOG     WCI  30
TRAVERSE CITY  CLOUDY    37  35  92 NW5       29.90R FOG     WCI  33
$$
MIZ007>008-015-271500-
EASTERN UPPER MICHIGAN

CITY           SKY/WX    TMP DP  RH WIND       PRES   REMARKS
KINROSS        LGT RAIN  34  34 100 NW8       29.88S VSB 3/4 WCI  27
MACKINAC ISLAN FOG       33  33 100 NW6       29.88S VSB 1/2 WCI  27
NEWBERRY       LGT RAIN  33  32  98 N6        29.88F WCI  27
S. S. MARIE    LGT RAIN  36  34  92 W6        29.88R FOG     WCI  31
MUNISING         N/A     35  34  96 N9        29.92R WCI  28
$$
MIZ004>006-011>014-085-271500-
CENTRAL UPPER MICHIGAN

CITY           SKY/WX    TMP DP  RH WIND       PRES   REMARKS
MANISTIQUE     CLOUDY    34  34 100 N7        29.90R WCI  28
ESCANABA       CLOUDY    35  34  96 NW5       29.94R WCI  31
MENOMINEE        N/A    N/A N/A N/A MISG        N/A
SAWYER-GWINN   CLOUDY    32  32 100 N10       29.91F FOG     WCI  24
$$
MIZ001>003-009>011-084-271500-
WESTERN UPPER MICHIGAN

CITY           SKY/WX    TMP DP  RH WIND       PRES   REMARKS
IRON MOUNTAIN  CLOUDY    35  31  85 NW7       29.91R WCI  29
HOUGHTON       FOG       33  31  92 NW8       29.93R VSB<1/4 WCI  26
COPPER HARBOR    N/A     33  32  96 N7        29.94S WCI  27
IRONWOOD       FOG       33  32  96 SW5       29.96R VSB 1/4 WCI  29
$$

ABBREVIATIONS USED IN REMARKS
   TC - TEMPERATURE IN CELSIUS
  WCI - WIND CHILL INDEX
   HX - HEAT INDEX
  VSB - VISIBILITY




USA.gov is the U.S. government's official web portal to all federal, state and local government web resources and services.